Data No.,UTC Date,UTC Time,Latitude,Longitude,Course(deg),Sal(psu)
21,2012/6/13,4:22:00,33-58.6100N,137-02.3300E,176,34.3149
22,2012/6/13,4:23:00,33-58.4000N,137-02.3400E,177,34.3188
23,2012/6/13,4:24:00,33-58.1900N,137-02.3500E,178,34.3227
24,2012/6/13,4:25:00,33-57.9800N,137-02.3600E,177,34.3253
25,2012/6/13,4:26:00,33-57.7600N,137-02.3700E,176,34.3271
26,2012/6/13,4:27:00,33-57.5500N,137-02.3800E,179,34.3254
27,2012/6/13,4:28:00,33-57.3300N,137-02.3700E,183,34.3256
28,2012/6/13,4:29:00,33-57.1200N,137-02.3300E,191,34.3254
29,2012/6/13,4:30:00,33-56.9100N,137-02.2600E,195,34.3262
30,2012/6/13,4:31:00,33-56.6900N,137-02.1800E,201,34.329
31,2012/6/13,4:32:00,33-56.4900N,137-02.0700E,204,34.3298
32,2012/6/13,4:33:00,33-56.2800N,137-01.9500E,204,34.3312
33,2012/6/13,4:34:00,33-56.0800N,137-01.8400E,204,34.3339
34,2012/6/13,4:35:00,33-55.8700N,137-01.7300E,205,34.3349
35,2012/6/13,4:36:00,33-55.6700N,137-01.6100E,205,34.3364
36,2012/6/13,4:37:00,33-55.4600N,137-01.5000E,204,34.338
37,2012/6/13,4:38:00,33-55.2600N,137-01.3900E,203,34.341
38,2012/6/13,4:39:00,33-55.0400N,137-01.2700E,204,34.3402
39,2012/6/13,4:40:00,33-54.8300N,137-01.1600E,203,34.3348
40,2012/6/13,4:41:00,33-54.6300N,137-01.0500E,203,34.3311
41,2012/6/13,4:42:00,33-54.4300N,137-00.9400E,203,34.3318
42,2012/6/13,4:43:00,33-54.2300N,137-00.8400E,201,34.3277
43,2012/6/13,4:44:00,33-54.0200N,137-00.7500E,201,34.3265
44,2012/6/13,4:45:00,33-53.8200N,137-00.6600E,200,34.3222
45,2012/6/13,4:46:00,33-53.6100N,137-00.5700E,200,34.3172
46,2012/6/13,4:47:00,33-53.4000N,137-00.4700E,199,34.3185
47,2012/6/13,4:48:00,33-53.2000N,137-00.3800E,201,34.3179
48,2012/6/13,4:49:00,33-52.9800N,137-00.2800E,201,34.3186
49,2012/6/13,4:50:00,33-52.7800N,137-00.1900E,200,34.3192
50,2012/6/13,4:51:00,33-52.5700N,137-00.1100E,199,34.3164
51,2012/6/13,4:52:00,33-52.3600N,137-00.0200E,199,34.3159
52,2012/6/13,4:53:00,33-52.1600N,136-59.9300E,199,34.3134
53,2012/6/13,4:54:00,33-51.9500N,136-59.8500E,199,34.3115
54,2012/6/13,4:55:00,33-51.7400N,136-59.7600E,199,34.2989
55,2012/6/13,4:56:00,33-51.5400N,136-59.6700E,199,34.3175
56,2012/6/13,4:57:00,33-51.3300N,136-59.5800E,198,34.3158
57,2012/6/13,4:58:00,33-51.1300N,136-59.5000E,198,34.3148
58,2012/6/13,4:59:00,33-50.9200N,136-59.4200E,198,34.3164
59,2012/6/13,5:00:00,33-50.7100N,136-59.3300E,198,34.322
60,2012/6/13,5:01:00,33-50.5000N,136-59.2500E,198,34.3244
61,2012/6/13,5:02:00,33-50.2900N,136-59.1700E,198,34.326
62,2012/6/13,5:03:00,33-50.0800N,136-59.0900E,197,34.3272
63,2012/6/13,5:04:00,33-49.8800N,136-59.0000E,198,34.3321
64,2012/6/13,5:05:00,33-49.6700N,136-58.9200E,198,34.3363
65,2012/6/13,5:06:00,33-49.4600N,136-58.8400E,198,34.3387
66,2012/6/13,5:07:00,33-49.2500N,136-58.7600E,197,34.3389
67,2012/6/13,5:08:00,33-49.0200N,136-58.6700E,198,34.3398
68,2012/6/13,5:09:00,33-48.8100N,136-58.5900E,197,34.3397
69,2012/6/13,5:10:00,33-48.6000N,136-58.5200E,195,34.3394
70,2012/6/13,5:11:00,33-48.3900N,136-58.4400E,196,34.3393
71,2012/6/13,5:12:00,33-48.1800N,136-58.3600E,197,34.3395
72,2012/6/13,5:13:00,33-47.9700N,136-58.2800E,197,34.3413
73,2012/6/13,5:14:00,33-47.7600N,136-58.2000E,197,34.3398
74,2012/6/13,5:15:00,33-47.5500N,136-58.1200E,197,34.3272
75,2012/6/13,5:16:00,33-47.3400N,136-58.0300E,199,34.3252
76,2012/6/13,5:17:00,33-47.1300N,136-57.9400E,200,34.3258
77,2012/6/13,5:18:00,33-46.9300N,136-57.8500E,199,34.3258
78,2012/6/13,5:19:00,33-46.7200N,136-57.7600E,201,34.316
79,2012/6/13,5:20:00,33-46.5200N,136-57.6700E,199,34.3123
80,2012/6/13,5:21:00,33-46.3100N,136-57.5800E,200,34.3111
81,2012/6/13,5:22:00,33-46.1100N,136-57.4900E,200,34.3108
82,2012/6/13,5:23:00,33-45.9100N,136-57.4000E,200,34.3122
83,2012/6/13,5:24:00,33-45.7000N,136-57.3100E,199,34.3134
84,2012/6/13,5:25:00,33-45.4900N,136-57.2200E,200,34.3154
85,2012/6/13,5:26:00,33-45.2900N,136-57.1300E,201,34.3137
86,2012/6/13,5:27:00,33-45.0900N,136-57.0400E,199,34.3167
87,2012/6/13,5:28:00,33-44.9000N,136-56.9500E,201,34.324
88,2012/6/13,5:29:00,33-44.7000N,136-56.8600E,199,34.3227
89,2012/6/13,5:30:00,33-44.5000N,136-56.7700E,199,34.327
90,2012/6/13,5:31:00,33-44.3000N,136-56.6900E,199,34.3183
91,2012/6/13,5:32:00,33-44.1000N,136-56.6000E,199,34.3151
92,2012/6/13,5:33:00,33-43.8900N,136-56.5200E,198,34.3172
93,2012/6/13,5:34:00,33-43.6800N,136-56.4300E,200,34.309
94,2012/6/13,5:35:00,33-43.4800N,136-56.3400E,200,34.3058
95,2012/6/13,5:36:00,33-43.2800N,136-56.2400E,202,34.3033
96,2012/6/13,5:37:00,33-43.0800N,136-56.1500E,201,34.2691
97,2012/6/13,5:38:00,33-42.8900N,136-56.0600E,200,34.2986
98,2012/6/13,5:39:00,33-42.6900N,136-55.9800E,200,34.2831
99,2012/6/13,5:40:00,33-42.4800N,136-55.8900E,199,34.2883
100,2012/6/13,5:41:00,33-42.2800N,136-55.8000E,200,34.2843
101,2012/6/13,5:42:00,33-42.0800N,136-55.7000E,201,34.2824
102,2012/6/13,5:43:00,33-41.8800N,136-55.6000E,201,34.2858
103,2012/6/13,5:44:00,33-41.6900N,136-55.5100E,200,34.2788
104,2012/6/13,5:45:00,33-41.4900N,136-55.4200E,200,34.271
105,2012/6/13,5:46:00,33-41.2900N,136-55.3300E,200,34.2686
106,2012/6/13,5:47:00,33-41.0900N,136-55.2400E,202,34.256
107,2012/6/13,5:48:00,33-40.8900N,136-55.1500E,201,34.2678
108,2012/6/13,5:49:00,33-40.7000N,136-55.0600E,202,34.2686
109,2012/6/13,5:50:00,33-40.5000N,136-54.9700E,200,34.2737
110,2012/6/13,5:51:00,33-40.3000N,136-54.8800E,200,34.2782
111,2012/6/13,5:52:00,33-40.1000N,136-54.7900E,200,34.2864
112,2012/6/13,5:53:00,33-39.9200N,136-54.7000E,201,34.2945
113,2012/6/13,5:54:00,33-39.7300N,136-54.6200E,199,34.3149
114,2012/6/13,5:55:00,33-39.5300N,136-54.5400E,199,34.3189
115,2012/6/13,5:56:00,33-39.3500N,136-54.4500E,200,34.3139
116,2012/6/13,5:57:00,33-39.1600N,136-54.3700E,198,34.3052
117,2012/6/13,5:58:00,33-38.9700N,136-54.2900E,200,34.3074
118,2012/6/13,5:59:00,33-38.7800N,136-54.2100E,201,---
119,2012/6/13,6:00:00,33-38.6000N,136-54.1200E,199,34.3122
120,2012/6/13,6:01:00,33-38.4100N,136-54.0400E,201,34.3139
121,2012/6/13,6:02:00,33-38.2100N,136-53.9500E,199,34.3189
122,2012/6/13,6:03:00,33-38.0300N,136-53.8700E,197,---
123,2012/6/13,6:04:00,33-37.8400N,136-53.7900E,200,34.3165
124,2012/6/13,6:05:00,33-37.6600N,136-53.7100E,199,34.3133
125,2012/6/13,6:06:00,33-37.4800N,136-53.6300E,198,34.306
126,2012/6/13,6:07:00,33-37.2900N,136-53.5600E,198,34.3036
127,2012/6/13,6:08:00,33-37.1100N,136-53.4800E,199,34.2822
128,2012/6/13,6:09:00,33-36.9300N,136-53.4000E,200,34.2739
129,2012/6/13,6:10:00,33-36.7400N,136-53.3200E,200,34.2477
130,2012/6/13,6:11:00,33-36.5600N,136-53.2300E,201,34.206
131,2012/6/13,6:12:00,33-36.3800N,136-53.1500E,200,34.2008
132,2012/6/13,6:13:00,33-36.2000N,136-53.0800E,199,---
133,2012/6/13,6:14:00,33-36.0200N,136-53.0000E,199,34.1904
134,2012/6/13,6:15:00,33-35.8400N,136-52.9200E,200,34.1863
135,2012/6/13,6:16:00,33-35.6600N,136-52.8400E,202,34.1901
136,2012/6/13,6:17:00,33-35.4900N,136-52.7500E,201,34.1926
137,2012/6/13,6:18:00,33-35.3100N,136-52.6700E,200,34.1949
138,2012/6/13,6:19:00,33-35.1200N,136-52.6000E,198,34.1968
139,2012/6/13,6:20:00,33-34.9300N,136-52.5200E,197,34.198
140,2012/6/13,6:21:00,33-34.7500N,136-52.4400E,198,34.1984
141,2012/6/13,6:22:00,33-34.5700N,136-52.3600E,199,34.2015
142,2012/6/13,6:23:00,33-34.3800N,136-52.2800E,200,34.2037
143,2012/6/13,6:24:00,33-34.1900N,136-52.1900E,201,34.2081
144,2012/6/13,6:25:00,33-34.0100N,136-52.1100E,201,34.2083
145,2012/6/13,6:26:00,33-33.8200N,136-52.0200E,200,34.212
146,2012/6/13,6:27:00,33-33.6300N,136-51.9400E,201,34.214
147,2012/6/13,6:28:00,33-33.4400N,136-51.8600E,199,34.2167
148,2012/6/13,6:29:00,33-33.2400N,136-51.7700E,200,34.2121
149,2012/6/13,6:30:00,33-33.0500N,136-51.6800E,201,34.2138
150,2012/6/13,6:31:00,33-32.8700N,136-51.5900E,203,34.2118
151,2012/6/13,6:32:00,33-32.6800N,136-51.5000E,202,34.2085
152,2012/6/13,6:33:00,33-32.4900N,136-51.4200E,200,34.2083
153,2012/6/13,6:34:00,33-32.3000N,136-51.3300E,201,34.2072
154,2012/6/13,6:35:00,33-32.1100N,136-51.2400E,200,34.2051
155,2012/6/13,6:36:00,33-31.9300N,136-51.1600E,199,34.2047
156,2012/6/13,6:37:00,33-31.7400N,136-51.0800E,200,34.205
157,2012/6/13,6:38:00,33-31.5500N,136-51.0000E,200,34.2046
158,2012/6/13,6:39:00,33-31.3700N,136-50.9100E,200,34.205
159,2012/6/13,6:40:00,33-31.1900N,136-50.8300E,200,34.2088
160,2012/6/13,6:41:00,33-31.0100N,136-50.7500E,200,34.2099
161,2012/6/13,6:42:00,33-30.8200N,136-50.6700E,198,34.2148
162,2012/6/13,6:43:00,33-30.6300N,136-50.5900E,199,34.2196
163,2012/6/13,6:44:00,33-30.4500N,136-50.5100E,200,34.2237
164,2012/6/13,6:45:00,33-30.2600N,136-50.4300E,199,34.237
165,2012/6/13,6:46:00,33-30.0800N,136-50.3500E,200,34.2443
166,2012/6/13,6:47:00,33-29.8900N,136-50.2700E,198,34.2467
167,2012/6/13,6:48:00,33-29.7100N,136-50.2000E,199,34.2453
168,2012/6/13,6:49:00,33-29.5200N,136-50.1200E,199,34.2459
169,2012/6/13,6:50:00,33-29.3400N,136-50.0500E,198,---
170,2012/6/13,6:51:00,33-29.1600N,136-49.9700E,201,34.2565
171,2012/6/13,6:52:00,33-28.9800N,136-49.8900E,197,34.2572
172,2012/6/13,6:53:00,33-28.8000N,136-49.8200E,199,34.2559
173,2012/6/13,6:54:00,33-28.6300N,136-49.7500E,198,34.2589
174,2012/6/13,6:55:00,33-28.4500N,136-49.6800E,198,34.2636
175,2012/6/13,6:56:00,33-28.2700N,136-49.6100E,197,34.269
176,2012/6/13,6:57:00,33-28.0800N,136-49.5400E,198,34.272
177,2012/6/13,6:58:00,33-27.9000N,136-49.4600E,199,34.2759
178,2012/6/13,6:59:00,33-27.7300N,136-49.3900E,199,34.2796
179,2012/6/13,7:00:00,33-27.5500N,136-49.3200E,198,34.2884
180,2012/6/13,7:01:00,33-27.3700N,136-49.2600E,195,34.3024
181,2012/6/13,7:02:00,33-27.1800N,136-49.2000E,196,34.3085
182,2012/6/13,7:03:00,33-27.0100N,136-49.1300E,197,34.303
183,2012/6/13,7:04:00,33-26.8300N,136-49.0700E,195,34.292
184,2012/6/13,7:05:00,33-26.6500N,136-49.0100E,194,34.2826
185,2012/6/13,7:06:00,33-26.4800N,136-48.9500E,197,34.2679
186,2012/6/13,7:07:00,33-26.3100N,136-48.8800E,196,34.2514
187,2012/6/13,7:08:00,33-26.1300N,136-48.8200E,195,34.2388
188,2012/6/13,7:09:00,33-25.9600N,136-48.7700E,194,34.2253
189,2012/6/13,7:10:00,33-25.7900N,136-48.7000E,196,34.2196
190,2012/6/13,7:11:00,33-25.6200N,136-48.6500E,196,34.2168
191,2012/6/13,7:12:00,33-25.4500N,136-48.5800E,195,34.2162
192,2012/6/13,7:13:00,33-25.2900N,136-48.5300E,196,34.2154
193,2012/6/13,7:14:00,33-25.1200N,136-48.4700E,195,34.2061
194,2012/6/13,7:15:00,33-24.9600N,136-48.4200E,194,34.1923
195,2012/6/13,7:16:00,33-24.8000N,136-48.3700E,193,34.1801
196,2012/6/13,7:17:00,33-24.6400N,136-48.3100E,197,---
197,2012/6/13,7:18:00,33-24.4800N,136-48.2500E,197,34.1719
198,2012/6/13,7:19:00,33-24.3100N,136-48.2100E,193,34.1708
199,2012/6/13,7:20:00,33-24.1500N,136-48.1600E,195,34.1712
200,2012/6/13,7:21:00,33-23.9800N,136-48.1000E,194,34.1716
201,2012/6/13,7:22:00,33-23.8200N,136-48.0500E,195,34.1723
202,2012/6/13,7:23:00,33-23.6600N,136-48.0000E,195,34.1703
203,2012/6/13,7:24:00,33-23.4800N,136-47.9500E,192,---
204,2012/6/13,7:25:00,33-23.3100N,136-47.9000E,196,34.1339
205,2012/6/13,7:26:00,33-23.1400N,136-47.8400E,194,34.1681
206,2012/6/13,7:27:00,33-22.9800N,136-47.8000E,192,34.1742
207,2012/6/13,7:28:00,33-22.8000N,136-47.7500E,194,34.1776
208,2012/6/13,7:29:00,33-22.6300N,136-47.7000E,194,34.1788
209,2012/6/13,7:30:00,33-22.4600N,136-47.6400E,194,34.179
210,2012/6/13,7:31:00,33-22.2900N,136-47.5800E,196,34.1732
211,2012/6/13,7:32:00,33-22.1300N,136-47.5200E,198,34.17
212,2012/6/13,7:33:00,33-21.9600N,136-47.4600E,198,34.1741
213,2012/6/13,7:34:00,33-21.8000N,136-47.3900E,198,34.1731
214,2012/6/13,7:35:00,33-21.6400N,136-47.3300E,200,34.1749
215,2012/6/13,7:36:00,33-21.4700N,136-47.2600E,199,34.1753
216,2012/6/13,7:37:00,33-21.3000N,136-47.1900E,195,34.1761
217,2012/6/13,7:38:00,33-21.1400N,136-47.1300E,196,34.1797
218,2012/6/13,7:39:00,33-20.9800N,136-47.0600E,198,34.1731
219,2012/6/13,7:40:00,33-20.8400N,136-46.9900E,201,---
220,2012/6/13,7:41:00,33-20.6800N,136-46.9300E,196,---
221,2012/6/13,7:42:00,33-20.5200N,136-46.8600E,196,34.1849
222,2012/6/13,7:43:00,33-20.3600N,136-46.8000E,199,34.1891
223,2012/6/13,7:44:00,33-20.2000N,136-46.7300E,198,34.1966
224,2012/6/13,7:45:00,33-20.0400N,136-46.6600E,199,34.2072
225,2012/6/13,7:46:00,33-19.8700N,136-46.5900E,200,34.2184
226,2012/6/13,7:47:00,33-19.7200N,136-46.5200E,199,34.2235
227,2012/6/13,7:48:00,33-19.5600N,136-46.4500E,201,34.2272
228,2012/6/13,7:49:00,33-19.4000N,136-46.3900E,196,34.2289
229,2012/6/13,7:50:00,33-19.2400N,136-46.3300E,197,34.2281
230,2012/6/13,7:51:00,33-19.0800N,136-46.2600E,198,34.2258
231,2012/6/13,7:52:00,33-18.9200N,136-46.1900E,198,34.2285
232,2012/6/13,7:53:00,33-18.7600N,136-46.1300E,200,34.224
233,2012/6/13,7:54:00,33-18.6000N,136-46.0600E,200,34.2219
234,2012/6/13,7:55:00,33-18.4400N,136-45.9900E,198,34.219
235,2012/6/13,7:56:00,33-18.2800N,136-45.9200E,200,34.2175
236,2012/6/13,7:57:00,33-18.1200N,136-45.8500E,199,34.2146
237,2012/6/13,7:58:00,33-17.9600N,136-45.7800E,200,34.2145
238,2012/6/13,7:59:00,33-17.8000N,136-45.7100E,201,34.1972
239,2012/6/13,8:00:00,33-17.6300N,136-45.6400E,201,34.2128
240,2012/6/13,8:01:00,33-17.4700N,136-45.5700E,200,34.209
241,2012/6/13,8:02:00,33-17.3100N,136-45.4900E,200,34.2098
242,2012/6/13,8:03:00,33-17.1400N,136-45.4200E,201,34.2088
243,2012/6/13,8:04:00,33-16.9700N,136-45.3400E,201,34.213
244,2012/6/13,8:05:00,33-16.8100N,136-45.2700E,201,34.2188
245,2012/6/13,8:06:00,33-16.6400N,136-45.1900E,201,34.2179
246,2012/6/13,8:07:00,33-16.4700N,136-45.1200E,199,34.21
247,2012/6/13,8:08:00,33-16.3100N,136-45.0400E,199,34.1821
248,2012/6/13,8:09:00,33-16.1500N,136-44.9700E,201,34.1633
249,2012/6/13,8:10:00,33-15.9800N,136-44.8900E,199,34.1545
250,2012/6/13,8:11:00,33-15.8200N,136-44.8300E,198,34.1544
251,2012/6/13,8:12:00,33-15.6600N,136-44.7500E,200,34.142
252,2012/6/13,8:13:00,33-15.5000N,136-44.6900E,201,34.158
253,2012/6/13,8:14:00,33-15.3500N,136-44.6200E,200,34.1513
254,2012/6/13,8:15:00,33-15.2000N,136-44.5500E,200,34.1485
255,2012/6/13,8:16:00,33-15.0400N,136-44.4800E,198,34.1429
256,2012/6/13,8:17:00,33-14.8900N,136-44.4100E,199,34.1469
257,2012/6/13,8:18:00,33-14.7300N,136-44.3500E,201,34.1517
258,2012/6/13,8:19:00,33-14.5700N,136-44.2700E,201,34.1546
259,2012/6/13,8:20:00,33-14.4200N,136-44.2000E,200,34.1593
260,2012/6/13,8:21:00,33-14.2600N,136-44.1300E,199,34.1708
261,2012/6/13,8:22:00,33-14.1000N,136-44.0600E,200,34.1885
262,2012/6/13,8:23:00,33-13.9500N,136-44.0000E,199,34.2086
263,2012/6/13,8:24:00,33-13.7900N,136-43.9300E,200,34.2236
264,2012/6/13,8:25:00,33-13.6200N,136-43.8600E,201,34.2278
265,2012/6/13,8:26:00,33-13.4600N,136-43.7900E,200,34.2298
266,2012/6/13,8:27:00,33-13.3000N,136-43.7200E,197,34.2337
267,2012/6/13,8:28:00,33-13.1300N,136-43.6500E,200,34.2329
268,2012/6/13,8:29:00,33-12.9700N,136-43.5800E,200,---
269,2012/6/13,8:30:00,33-12.8100N,136-43.5100E,202,34.2328
270,2012/6/13,8:31:00,33-12.6400N,136-43.4400E,199,34.2243
271,2012/6/13,8:32:00,33-12.4800N,136-43.3700E,199,34.2162
272,2012/6/13,8:33:00,33-12.3200N,136-43.3000E,199,34.2142
273,2012/6/13,8:34:00,33-12.1500N,136-43.2300E,199,34.2126
274,2012/6/13,8:35:00,33-11.9900N,136-43.1600E,200,34.211
275,2012/6/13,8:36:00,33-11.8300N,136-43.0800E,201,34.2083
276,2012/6/13,8:37:00,33-11.6700N,136-43.0100E,202,34.2055
277,2012/6/13,8:38:00,33-11.5200N,136-42.9400E,200,34.2097
278,2012/6/13,8:39:00,33-11.3600N,136-42.8700E,198,34.2089
279,2012/6/13,8:40:00,33-11.1900N,136-42.8100E,198,34.2123
280,2012/6/13,8:41:00,33-11.0300N,136-42.7500E,198,34.2132
281,2012/6/13,8:42:00,33-10.8600N,136-42.6800E,198,34.2183
282,2012/6/13,8:43:00,33-10.7100N,136-42.6100E,199,34.217
283,2012/6/13,8:44:00,33-10.5500N,136-42.5500E,200,34.2144
284,2012/6/13,8:45:00,33-10.3800N,136-42.4700E,200,34.2127
285,2012/6/13,8:46:00,33-10.2200N,136-42.4100E,200,34.2101
286,2012/6/13,8:47:00,33-10.0600N,136-42.3500E,198,34.2099
287,2012/6/13,8:48:00,33-09.9100N,136-42.2900E,195,34.1988
288,2012/6/13,8:49:00,33-09.7500N,136-42.2300E,196,34.204
289,2012/6/13,8:50:00,33-09.5800N,136-42.1700E,197,---
290,2012/6/13,8:51:00,33-09.4200N,136-42.1100E,198,34.1807
291,2012/6/13,8:52:00,33-09.2600N,136-42.0500E,196,34.204
292,2012/6/13,8:53:00,33-09.0900N,136-41.9800E,198,34.2036
293,2012/6/13,8:54:00,33-08.9300N,136-41.9200E,199,34.2043
294,2012/6/13,8:55:00,33-08.7700N,136-41.8500E,200,---
295,2012/6/13,8:56:00,33-08.6000N,136-41.7700E,202,34.2042
296,2012/6/13,8:57:00,33-08.4500N,136-41.7000E,201,34.2056
297,2012/6/13,8:58:00,33-08.2900N,136-41.6200E,202,34.2103
298,2012/6/13,8:59:00,33-08.1300N,136-41.5500E,201,34.215
299,2012/6/13,9:00:00,33-07.9700N,136-41.4700E,200,34.221
300,2012/6/13,9:01:00,33-07.8100N,136-41.4000E,201,34.2278
301,2012/6/13,9:02:00,33-07.6500N,136-41.3200E,202,34.2359
302,2012/6/13,9:03:00,33-07.4900N,136-41.2500E,202,34.2446
303,2012/6/13,9:04:00,33-07.3300N,136-41.1700E,202,34.2526
304,2012/6/13,9:05:00,33-07.1700N,136-41.0800E,202,34.2628
305,2012/6/13,9:06:00,33-07.0100N,136-41.0000E,203,34.2742
306,2012/6/13,9:07:00,33-06.8500N,136-40.9200E,202,34.2799
307,2012/6/13,9:08:00,33-06.7000N,136-40.8500E,203,34.287
308,2012/6/13,9:09:00,33-06.5400N,136-40.7700E,201,34.2875
309,2012/6/13,9:10:00,33-06.3900N,136-40.7000E,199,34.2897
310,2012/6/13,9:11:00,33-06.2300N,136-40.6300E,200,34.2904
311,2012/6/13,9:12:00,33-06.0600N,136-40.5500E,201,34.2895
312,2012/6/13,9:13:00,33-05.9000N,136-40.4800E,200,34.2901
313,2012/6/13,9:14:00,33-05.7500N,136-40.4100E,201,34.2927
314,2012/6/13,9:15:00,33-05.5900N,136-40.3400E,201,34.3071
315,2012/6/13,9:16:00,33-05.4300N,136-40.2700E,199,34.3145
316,2012/6/13,9:17:00,33-05.2700N,136-40.2000E,198,34.3246
317,2012/6/13,9:18:00,33-05.1100N,136-40.1300E,201,34.3334
318,2012/6/13,9:19:00,33-04.9500N,136-40.0600E,199,34.3416
319,2012/6/13,9:20:00,33-04.7800N,136-39.9900E,200,34.3529
320,2012/6/13,9:21:00,33-04.6200N,136-39.9100E,203,34.3608
321,2012/6/13,9:22:00,33-04.4600N,136-39.8300E,203,34.3666
322,2012/6/13,9:23:00,33-04.3000N,136-39.7400E,205,34.3686
323,2012/6/13,9:24:00,33-04.1500N,136-39.6500E,206,34.3732
324,2012/6/13,9:25:00,33-04.0000N,136-39.5600E,207,34.3793
325,2012/6/13,9:26:00,33-03.8500N,136-39.4800E,203,34.3844
326,2012/6/13,9:27:00,33-03.6900N,136-39.4000E,201,34.3788
327,2012/6/13,9:28:00,33-03.5300N,136-39.3300E,203,34.3927
328,2012/6/13,9:29:00,33-03.3600N,136-39.2500E,203,---
329,2012/6/13,9:30:00,33-03.2000N,136-39.1700E,201,---
330,2012/6/13,9:31:00,33-03.0400N,136-39.1000E,201,34.4113
331,2012/6/13,9:32:00,33-02.8700N,136-39.0200E,201,34.424
332,2012/6/13,9:33:00,33-02.7100N,136-38.9400E,201,34.4339
333,2012/6/13,9:34:00,33-02.5500N,136-38.8600E,203,34.4462
334,2012/6/13,9:35:00,33-02.3900N,136-38.7700E,205,34.4519
335,2012/6/13,9:36:00,33-02.2300N,136-38.7000E,200,34.4577
336,2012/6/13,9:37:00,33-02.0700N,136-38.6300E,198,34.4636
337,2012/6/13,9:38:00,33-01.9100N,136-38.5600E,197,34.4741
338,2012/6/13,9:39:00,33-01.7400N,136-38.4900E,200,34.4858
339,2012/6/13,9:40:00,33-01.5700N,136-38.4000E,203,34.4915
340,2012/6/13,9:41:00,33-01.4100N,136-38.3200E,201,34.4914
341,2012/6/13,9:42:00,33-01.2400N,136-38.2400E,200,34.4889
342,2012/6/13,9:43:00,33-01.0800N,136-38.1600E,202,34.4888
343,2012/6/13,9:44:00,33-00.9200N,136-38.0800E,202,34.4875
344,2012/6/13,9:45:00,33-00.7500N,136-38.0000E,200,34.4868
345,2012/6/13,9:46:00,33-00.5800N,136-37.9300E,199,34.4844
346,2012/6/13,9:47:00,33-00.4100N,136-37.8600E,200,34.4861
347,2012/6/13,9:48:00,33-00.2500N,136-37.7800E,202,34.4869
348,2012/6/13,9:49:00,33-00.0900N,136-37.7000E,203,34.4841
349,2012/6/13,9:50:00,32-59.9300N,136-37.6300E,201,34.4861
350,2012/6/13,9:51:00,32-59.7700N,136-37.5500E,201,34.4849
351,2012/6/13,9:52:00,32-59.6000N,136-37.4800E,200,34.4855
352,2012/6/13,9:53:00,32-59.4400N,136-37.4000E,201,34.4873
353,2012/6/13,9:54:00,32-59.2800N,136-37.3300E,200,34.4864
354,2012/6/13,9:55:00,32-59.1200N,136-37.2500E,202,34.4849
355,2012/6/13,9:56:00,32-58.9600N,136-37.1800E,202,34.456
356,2012/6/13,9:57:00,32-58.8100N,136-37.1100E,199,---
357,2012/6/13,9:58:00,32-58.6500N,136-37.0400E,198,34.4812
358,2012/6/13,9:59:00,32-58.4900N,136-36.9600E,202,34.4838
359,2012/6/13,10:00:00,32-58.3200N,136-36.8900E,202,34.4844
360,2012/6/13,10:01:00,32-58.1700N,136-36.8100E,201,34.4826
361,2012/6/13,10:02:00,32-58.0100N,136-36.7400E,201,---
362,2012/6/13,10:03:00,32-57.8500N,136-36.6600E,202,34.4888
363,2012/6/13,10:04:00,32-57.6900N,136-36.5900E,199,34.487
364,2012/6/13,10:05:00,32-57.5300N,136-36.5200E,201,34.4885
365,2012/6/13,10:06:00,32-57.3600N,136-36.4400E,202,34.4878
366,2012/6/13,10:07:00,32-57.1900N,136-36.3600E,201,34.4878
367,2012/6/13,10:08:00,32-57.0300N,136-36.2800E,201,34.4893
368,2012/6/13,10:09:00,32-56.8600N,136-36.2100E,200,---
369,2012/6/13,10:10:00,32-56.6900N,136-36.1400E,200,34.4884
370,2012/6/13,10:11:00,32-56.5300N,136-36.0600E,201,34.4807
371,2012/6/13,10:12:00,32-56.3700N,136-35.9800E,204,34.4864
372,2012/6/13,10:13:00,32-56.2100N,136-35.9000E,204,34.4876
373,2012/6/13,10:14:00,32-56.0500N,136-35.8300E,200,34.4869
374,2012/6/13,10:15:00,32-55.8900N,136-35.7500E,201,34.4866
375,2012/6/13,10:16:00,32-55.7200N,136-35.6700E,201,34.4848
376,2012/6/13,10:17:00,32-55.5600N,136-35.6000E,201,34.4863
377,2012/6/13,10:18:00,32-55.3900N,136-35.5200E,201,34.4866
378,2012/6/13,10:19:00,32-55.2200N,136-35.4500E,201,34.487
379,2012/6/13,10:20:00,32-55.0500N,136-35.3700E,202,34.4888
380,2012/6/13,10:21:00,32-54.8900N,136-35.2800E,203,34.4885
381,2012/6/13,10:22:00,32-54.7300N,136-35.2000E,203,34.4916
382,2012/6/13,10:23:00,32-54.5600N,136-35.1200E,202,34.4924
383,2012/6/13,10:24:00,32-54.4000N,136-35.0400E,202,34.4934
384,2012/6/13,10:25:00,32-54.2300N,136-34.9700E,200,---
385,2012/6/13,10:26:00,32-54.0700N,136-34.9000E,201,34.4912
386,2012/6/13,10:27:00,32-53.9100N,136-34.8100E,203,34.4856
387,2012/6/13,10:28:00,32-53.7600N,136-34.7300E,205,34.4937
388,2012/6/13,10:29:00,32-53.6000N,136-34.6400E,203,34.4812
389,2012/6/13,10:30:00,32-53.4500N,136-34.5600E,202,34.463
390,2012/6/13,10:31:00,32-53.2800N,136-34.4800E,202,34.45
391,2012/6/13,10:32:00,32-53.1200N,136-34.4100E,200,34.461
392,2012/6/13,10:33:00,32-52.9500N,136-34.3200E,204,34.4569
393,2012/6/13,10:34:00,32-52.7900N,136-34.2500E,200,34.4515
394,2012/6/13,10:35:00,32-52.6100N,136-34.1600E,201,34.4479
395,2012/6/13,10:36:00,32-52.4400N,136-34.0800E,203,34.4462
396,2012/6/13,10:37:00,32-52.2900N,136-33.9900E,207,34.4444
397,2012/6/13,10:38:00,32-52.1300N,136-33.9000E,204,34.4447
398,2012/6/13,10:39:00,32-51.9700N,136-33.8200E,204,34.4428
399,2012/6/13,10:40:00,32-51.8100N,136-33.7400E,202,---
400,2012/6/13,10:41:00,32-51.6500N,136-33.6600E,203,34.4397
401,2012/6/13,10:42:00,32-51.4900N,136-33.5800E,203,34.4353
402,2012/6/13,10:43:00,32-51.3300N,136-33.4900E,203,34.4334
403,2012/6/13,10:44:00,32-51.1600N,136-33.4000E,204,34.4347
404,2012/6/13,10:45:00,32-50.9900N,136-33.3200E,203,34.4155
405,2012/6/13,10:46:00,32-50.8300N,136-33.2400E,204,34.4353
406,2012/6/13,10:47:00,32-50.6600N,136-33.1500E,203,34.4374
407,2012/6/13,10:48:00,32-50.5000N,136-33.0700E,203,34.4372
408,2012/6/13,10:49:00,32-50.3300N,136-32.9800E,203,---
409,2012/6/13,10:50:00,32-50.1600N,136-32.8900E,202,34.4475
410,2012/6/13,10:51:00,32-49.9900N,136-32.8100E,203,34.4535
411,2012/6/13,10:52:00,32-49.8300N,136-32.7200E,204,34.4588
412,2012/6/13,10:53:00,32-49.6700N,136-32.6400E,203,34.4595
413,2012/6/13,10:54:00,32-49.5000N,136-32.5500E,202,34.4626
414,2012/6/13,10:55:00,32-49.3300N,136-32.4700E,201,34.4604
415,2012/6/13,10:56:00,32-49.1600N,136-32.3900E,203,34.4617
416,2012/6/13,10:57:00,32-49.0000N,136-32.3000E,202,34.4572
417,2012/6/13,10:58:00,32-48.8400N,136-32.2300E,202,34.4532
418,2012/6/13,10:59:00,32-48.6700N,136-32.1500E,202,34.4528
419,2012/6/13,11:00:00,32-48.5000N,136-32.0600E,203,---
420,2012/6/13,11:01:00,32-48.3200N,136-31.9800E,200,34.4517
421,2012/6/13,11:02:00,32-48.1500N,136-31.9000E,202,34.4536